Location: New Canada
(47.1017°N, 68.5042°W)
Time: 02:44:58
(UTC+00:00)

COSMOS 1818 DEB - Pass Details

Date: 30 November 2023
Orbit: 754 x 785 km, 65.0° (Epoch: 12 November)

Event Time Altitude Azimuth Distance (km) Brightness Sun altitude
Rises 23:47:41 0° 293° (WNW) 3,269 ? -30.0°
Reaches altitude 10° 23:51:39 10° 322° (NW) 2,347 ? -30.7°
Maximum altitude 23:53:58 13° 348° (NNW) 2,167 ? -31.1°
Enters shadow 23:54:17 13° 351° (N) 2,171 ? -31.1°
